Regional Weather Roundup
Issued by NWS

Home | Current Version | Previous Version | Text Only | Print | Product List | Glossary Off
Versions: 1 2 3 4 5 6 7 8 9 10 11 12 13 14 15 16 17 18 19 20 21 22 23 24 25 26 27 28 29 30 31 32 33 34 35 36 37 38 39 40 41 42 43 44 45 46 47 48 49 50

733
ASUS43 KLSX 021810
RWRMO

WEATHER SUMMARY FOR MISSOURI
NATIONAL WEATHER SERVICE SPRINGFIELD MO
100 PM CDT MON MAY 02 2016

NOTE: "FAIR" INDICATES FEW OR NO CLOUDS BELOW 12,000 FEET WITH NO
       SIGNIFICANT WEATHER AND/OR OBSTRUCTIONS TO VISIBILITY.
       CURRENT SKY AND/OR WEATHER CONDITIONS ARE NOT AVAILABLE FOR
       CHILLICOTHE AND FARMINGTON.

MOZ001>031-035>038-043-044-053-054-021900-
...NORTHERN AND WESTERN MISSOURI...

CITY           SKY/WX    TMP DP  RH WIND       PRES   REMARKS
KANSAS CTY INT CLOUDY    53  45  74 N6        30.11F
6HR MIN TEMP:  47; 6HR MAX TEMP:  53;

KANSAS C DTWN  CLOUDY    53  46  77 N5        30.11S
6HR MIN TEMP:  50; 6HR MAX TEMP:  54;

LEE`S SUMMIT   LGT RAIN  52  44  74 N6        30.11S
6HR MIN TEMP:  48; 6HR MAX TEMP:  53; 6HR PCP: TRACE;

ST JOSEPH      CLOUDY    56  45  66 NE8       30.12S
6HR MIN TEMP:  49; 6HR MAX TEMP:  56;

CHILLICOTHE      N/A     57  46  66 NE3       30.10F
6HR MIN TEMP:  47; 6HR MAX TEMP:  57;

KIRKSVILLE     CLOUDY    55  45  68 N9        30.09S
6HR MIN TEMP:  48; 6HR MAX TEMP:  56;


$$
MOZ066>068-077>081-088>096-101>105-021900-
...SOUTHWEST MISSOURI...

CITY           SKY/WX    TMP DP  RH WIND       PRES   REMARKS
SPRINGFIELD    CLOUDY    54  45  71 NW5       30.09S
6HR MIN TEMP:  50; 6HR MAX TEMP:  55;

JOPLIN         CLOUDY    53  45  74 NW10      30.12F
6HR MIN TEMP:  50; 6HR MAX TEMP:  54;

BRANSON        CLOUDY    55  46  71 CALM      30.09F

$$
MOZ032>034-039>042-045>050-055>058-069>072-021900-
...CENTRAL MISSOURI...

CITY           SKY/WX    TMP DP  RH WIND       PRES   REMARKS
COLUMBIA       CLOUDY    53  46  77 NE3       30.08F
6HR MIN TEMP:  50; 6HR MAX TEMP:  54; 6HR PCP: TRACE;

JEFFERSON CITY CLOUDY    55  45  68 CALM      30.07F
6HR MIN TEMP:  50; 6HR MAX TEMP:  56; 6HR PCP: TRACE;

ROLLA          CLOUDY    52  46  80 NW5       30.06F
6HR MIN TEMP:  47; 6HR MAX TEMP:  53;

SEDALIA        CLOUDY    53  46  77 N8        30.10F
6HR MIN TEMP:  49; 6HR MAX TEMP:  54; 6HR PCP: TRACE;

WHITEMAN AFB   CLOUDY    54  46  76 N6        30.09
WARRENSBURG    CLOUDY    52  45  76 N6        30.10S
OSAGE BEACH    CLOUDY    54  39  58 W7        30.09F

$$
MOZ051-052-059>065-021900-
...EAST CENTRAL MISSOURI...

CITY           SKY/WX    TMP DP  RH WIND       PRES   REMARKS
ST LOUIS INTL  CLOUDY    56  47  71 NW7       30.06F
6HR MIN TEMP:  52; 6HR MAX TEMP:  57; 6HR PCP: TRACE;

SPIRIT OF STL  CLOUDY    55  48  76 W5        30.06F
6HR MIN TEMP:  51; 6HR MAX TEMP:  55; 6HR PCP: TRACE;

ST CHARLES     CLOUDY    55  48  77 N6        30.06S
6HR MIN TEMP:  51; 6HR MAX TEMP:  56;


$$
MOZ072>076-082>087-097>100-106>115-021900-
...SOUTH CENTRAL AND SOUTHEAST MISSOURI...

CITY           SKY/WX    TMP DP  RH WIND       PRES   REMARKS
CAPE GIRARDEAU CLOUDY    63  49  60 NW7       30.02F
6HR MIN TEMP:  54; 6HR MAX TEMP:  64;

FARMINGTON     CLOUDY    57  47  69 N7        30.05F
POPLAR BLUFF   CLOUDY    63  49  60 CALM      30.03F
6HR MIN TEMP:  54; 6HR MAX TEMP:  65;

WEST PLAINS      N/A     62  46  55 NW9       30.06F
6HR MIN TEMP:  49; 6HR MAX TEMP:  64;


$$




USA.gov is the U.S. government's official web portal to all federal, state and local government web resources and services.